[[{"header":{"parameterUnit":"m.s-1","parameterCategory":1,"la1":30.2991,"la2":30.254,"lo1":-89.0895,"lo2":-89.0444,"dy":0.0017,"dx":0.0017,"nx":28,"ny":28,"refTime":"2024-11-25T09:00:00:Z","depth":0,"parameterNumber":2,"parameterNumberName":"U-component_of_WINDS"},"data":[0,0,0,0,0,0,0,0,0,0,0,0,0,0,0,0,0,0,0,0,0,0,0,0,0,0,0,0,0,0,0,0,0,0,0,0,0,0,0,0,0,0,0,0,0,0,0,0,0,0,0,0,0,0,0,0,0,0,3.5482,3.5484,0,3.5671,3.5673,3.5675,3.5691,3.5689,3.5687,3.5685,3.5884,3.5891,3.5898,0,0,0,0,0,0,0,0,0,0,0,0,0,3.514,3.5147,3.5482,3.5485,3.5487,3.5671,3.5673,3.5676,3.5692,3.5689,3.5687,3.5684,3.5881,3.589,3.5899,0,0,0,0,0,0,0,0,0,0,0,0,0,3.5305,3.5149,3.5482,3.5517,3.5522,3.567,3.5674,3.5677,3.5692,3.5689,3.5686,3.5683,3.5879,3.5889,3.59,3.6028,0,0,3.5933,3.5937,0,0,0,0,0,0,0,0,3.5296,3.5318,3.5509,3.5515,3.5521,3.5654,3.5626,3.5795,3.5693,3.5628,3.5685,3.5682,3.581,3.5827,3.5869,3.6037,3.6045,3.5934,3.594,3.5945,3.5948,0,0,0,0,0,0,0,3.5284,3.531,3.5557,3.5512,3.5519,3.5525,3.5545,3.5658,3.5734,3.5633,3.5635,3.5657,3.5813,3.5858,3.5874,3.6048,3.5933,3.5943,3.595,3.5954,3.6332,3.6336,0,0,0,0,0,0,3.5266,3.53,3.5551,3.5563,3.5398,3.5533,3.5556,3.5615,3.5733,3.5748,3.5659,3.5657,3.5841,3.5861,3.5881,3.6039,3.5945,3.5955,3.5961,3.6329,3.6333,3.6337,0,0,0,0,0,0,3.5258,3.5288,3.5544,3.5432,3.5465,3.5543,3.5609,3.562,3.5666,3.5752,3.5767,3.5691,3.584,3.5865,3.5991,3.6046,3.596,3.5969,3.6324,3.633,3.6335,3.6355,0,0,0,0,0,0,3.5248,3.5285,3.5333,3.5433,3.5471,3.5649,3.5612,3.5626,3.5684,3.5682,3.5786,3.5801,3.5839,3.5975,3.6002,3.6059,3.5978,3.632,3.6327,3.6333,3.635,3.6361,3.637,0,0,0,0,0,3.5236,3.5332,3.5336,3.5366,3.5532,3.5652,3.5674,3.5715,3.5688,3.5738,3.5794,3.5797,3.6035,3.5987,3.6018,3.6079,3.6317,3.6325,3.6333,3.6346,3.6359,3.637,0,0,0,0,0,0,3.5239,3.5346,3.5351,3.5482,3.5558,3.5654,3.5719,3.5728,3.5814,3.5809,3.5858,3.5882,3.6005,3.6055,3.6,3.621,3.6173,3.6188,3.6173,3.6186,3.6196,3.6181,3.5987,0,0,0,0,0,3.5254,3.5341,3.5431,3.5538,3.5576,3.5641,3.5694,3.5719,3.58,3.5833,3.5898,3.5978,3.6071,3.6131,3.6221,3.6357,3.6381,3.6415,3.6425,3.6432,3.6445,3.6521,3.6537,3.6363,3.6363,3.6363,0,0,3.5288,3.5358,3.541,3.554,3.5602,3.5692,3.5668,3.5764,3.5832,3.5848,3.597,3.6021,3.6114,3.6245,3.6306,3.629,3.6498,3.6443,3.6448,3.6456,3.6531,3.6547,3.6562,3.6369,3.6368,3.6367,0,0,3.5396,3.5456,3.5552,3.5614,3.5707,3.575,3.5773,3.5869,3.5903,3.6026,3.604,3.6122,3.6281,3.6346,3.6401,3.6533,3.654,3.6561,3.6613,3.6687,3.6701,3.6713,3.6761,3.6778,3.6573,3.6573,3.6573,0,3.5426,3.5561,3.5601,3.5697,3.5755,3.5772,3.5871,3.593,3.6048,3.6088,3.6068,3.6268,3.6332,3.6479,3.6511,3.6554,3.6583,3.655,3.6695,3.6708,3.672,3.6767,3.6784,3.6575,3.6575,3.6575,3.6575,0,3.5595,3.5688,3.5755,3.5867,3.5932,3.6029,3.6085,3.6147,3.6167,3.6212,3.6337,3.6414,3.652,3.6557,3.6578,3.6708,3.6695,3.6685,3.6649,3.6738,3.6782,3.6801,3.6578,3.6577,3.6577,3.6576,0,0,3.5709,3.5842,3.5866,3.5917,3.6021,3.6095,3.6193,3.6296,3.6348,3.6429,3.6514,3.6648,3.6639,3.67,3.6729,3.6793,3.6894,3.6775,3.6778,3.6795,3.7043,3.705,3.707,3.6899,3.6903,3.6906,3.7035,0,3.5829,3.6002,3.6041,3.6191,3.6279,3.6297,3.6383,3.6457,3.6502,3.6584,3.6634,3.6729,3.6709,3.6747,3.6811,3.6868,3.6945,3.6859,3.698,3.6984,3.6956,3.7093,3.7101,3.722,3.7053,3.7056,3.7058,0,3.5991,3.6074,3.6232,3.6325,3.6363,3.644,3.6537,3.6615,3.67,3.6728,3.6796,3.6818,3.6923,3.6881,3.7027,3.6968,3.702,3.7055,3.7061,3.7074,3.7026,3.7111,3.7259,3.7277,3.7086,3.7084,3.7082,0,3.6059,3.6211,3.6325,3.6369,3.648,3.6533,3.6582,3.6664,3.6723,3.6809,3.6848,3.6945,3.6999,3.7074,3.7122,3.7087,3.7265,3.7227,3.7292,3.7291,3.7329,3.7326,3.7488,3.7362,3.7362,3.7361,3.7361,0,3.6188,3.6285,3.6357,3.6428,3.6537,3.6581,3.6689,3.6738,3.6811,3.6892,3.6915,3.6991,3.7049,3.7135,3.7173,3.7288,3.7312,3.7339,3.7348,3.7338,3.7334,3.7372,3.7366,3.7366,3.7365,3.7364,3.7363,0,3.6283,3.6335,3.6461,3.6556,3.6582,3.6658,3.674,3.681,3.6855,3.6958,3.6985,3.7057,3.7158,3.7213,3.7341,3.7367,3.7496,3.7501,3.7467,3.7471,3.7533,3.7526,3.7725,3.7754,3.7608,3.7609,3.7611,0,3.6362,3.6436,3.6538,3.6594,3.6643,3.6732,3.6792,3.684,3.6902,3.7004,3.7063,3.7165,3.7249,3.741,3.7475,3.7573,3.758,3.7643,3.7595,3.7582,3.7582,3.7577,3.7585,3.7652,3.7653,3.7654,3.7655,0,3.6497,3.6519,3.6604,3.6698,3.6769,3.6846,3.6923,3.6967,3.7028,3.7097,3.7199,3.7265,3.7394,3.7496,3.7599,3.7651,3.7664,3.767,3.769,3.768,3.7657,3.7671,3.749,3.7665,3.7664,3.7663,3.7663,3.7662,3.6587,3.6654,3.6736,3.683,3.6892,3.6963,3.7033,3.7087,3.7173,3.7281,3.7304,3.7413,3.7498,3.7637,3.7692,3.7779,3.7767,3.7797,3.7804,3.7811,3.7813,3.7643,3.7798,3.7798,3.7798,3.7798,3.7798,0,3.6723,3.6777,3.6863,3.6968,3.7043,3.7046,3.7131,3.7194,3.7288,3.7365,3.7447,3.7566,3.7665,3.7737,3.7838,3.7894,3.7903,3.7919,3.7916,3.7928,3.7818,3.779,3.7911,3.7911,3.7911,3.7911,3.7911,3.7911,3.6803,3.6916,3.6948,3.7093,3.7147,3.7252,3.7301,3.7367,3.7428,3.7559,3.7641,3.7687,3.7762,3.7869,3.796,3.7979,3.8016,3.8032,3.8052,3.7948,3.7936,3.7924,3.7898,3.8039,3.804,3.8154,3.8155,3.8156]},{"header":{"parameterUnit":"m.s-1","parameterCategory":1,"la1":30.2991,"la2":30.254,"lo1":-89.0895,"lo2":-89.0444,"dy":0.0017,"dx":0.0017,"nx":28,"ny":28,"refTime":"2024-11-25T09:00:00:Z","depth":0,"parameterNumber":3,"parameterNumberName":"V-component_of_WINDS"},"data":[0,0,0,0,0,0,0,0,0,0,0,0,0,0,0,0,0,0,0,0,0,0,0,0,0,0,0,0,0,0,0,0,0,0,0,0,0,0,0,0,0,0,0,0,0,0,0,0,0,0,0,0,0,0,0,0,0,0,1.2128,1.213,0,1.2323,1.2326,1.2328,1.2329,1.2327,1.2324,1.2322,1.2529,1.2537,1.2545,0,0,0,0,0,0,0,0,0,0,0,0,0,1.176,1.1767,1.2127,1.213,1.2132,1.2323,1.2326,1.2328,1.2329,1.2326,1.2323,1.232,1.2527,1.2536,1.2545,0,0,0,0,0,0,0,0,0,0,0,0,0,1.1934,1.1769,1.2127,1.2156,1.216,1.2323,1.2326,1.2329,1.233,1.2326,1.2323,1.2319,1.2524,1.2535,1.2547,1.2696,0,0,1.2583,1.2588,0,0,0,0,0,0,0,0,1.1924,1.1948,1.2149,1.2154,1.2159,1.2298,1.2272,1.2452,1.2331,1.2266,1.2322,1.2317,1.2456,1.2473,1.2518,1.2706,1.2714,1.2584,1.2591,1.2596,1.26,0,0,0,0,0,0,0,1.1912,1.1939,1.2205,1.2152,1.2158,1.2161,1.2181,1.2307,1.238,1.2271,1.2272,1.2295,1.2458,1.2507,1.2523,1.2718,1.2584,1.2594,1.2601,1.2606,1.3037,1.3042,0,0,0,0,0,0,1.1894,1.1929,1.2199,1.2211,1.203,1.217,1.2193,1.2257,1.2379,1.2393,1.2298,1.2294,1.2488,1.2509,1.253,1.2714,1.2596,1.2607,1.2614,1.3033,1.3038,1.3043,0,0,0,0,0,0,1.1886,1.1918,1.2191,1.207,1.2105,1.2181,1.2253,1.2263,1.2312,1.2398,1.2412,1.2334,1.2486,1.2514,1.2654,1.2721,1.2613,1.2623,1.3028,1.3035,1.3041,1.308,0,0,0,0,0,0,1.1875,1.1915,1.1971,1.2072,1.2112,1.231,1.2257,1.227,1.2332,1.2329,1.2436,1.245,1.2485,1.2637,1.2666,1.2735,1.2633,1.3022,1.3031,1.3039,1.3073,1.3087,1.3099,0,0,0,0,0,1.1862,1.1976,1.1974,1.2006,1.2183,1.2314,1.2337,1.2373,1.2337,1.2395,1.245,1.2447,1.2708,1.2651,1.2684,1.2758,1.3018,1.3029,1.3038,1.3068,1.3085,1.3099,0,0,0,0,0,0,1.1884,1.1989,1.1988,1.2138,1.2216,1.2313,1.2388,1.239,1.2483,1.2476,1.2519,1.2544,1.2684,1.2735,1.2669,1.2908,1.2859,1.2876,1.287,1.2887,1.29,1.2886,1.2642,0,0,0,0,0,1.1905,1.2,1.2088,1.2212,1.2251,1.2312,1.2371,1.2392,1.2476,1.251,1.2576,1.2659,1.276,1.2826,1.2924,1.308,1.3104,1.3147,1.316,1.317,1.3185,1.3272,1.3292,1.3075,1.3075,1.3075,0,0,1.1952,1.2021,1.2079,1.2218,1.2281,1.2381,1.2341,1.2448,1.2523,1.2527,1.2663,1.2714,1.2811,1.2959,1.3028,1.3006,1.325,1.3183,1.319,1.32,1.3284,1.3304,1.3323,1.3082,1.3081,1.308,0,0,1.2088,1.2149,1.2259,1.2322,1.2418,1.2458,1.2484,1.2581,1.2614,1.2751,1.2756,1.2847,1.302,1.3088,1.3146,1.3306,1.3307,1.3337,1.3405,1.3489,1.3507,1.3522,1.3581,1.3601,1.3351,1.3351,1.3351,0,1.2135,1.2282,1.2315,1.2422,1.2484,1.2489,1.2601,1.2662,1.2786,1.2829,1.2802,1.3018,1.3084,1.3249,1.3288,1.3334,1.3366,1.3326,1.3501,1.3517,1.3532,1.3588,1.361,1.3354,1.3354,1.3353,1.3353,0,1.2336,1.2438,1.2515,1.2632,1.2702,1.2811,1.2862,1.2929,1.2944,1.2987,1.3127,1.3205,1.3318,1.3359,1.3375,1.3527,1.351,1.3491,1.3443,1.3555,1.3609,1.363,1.3358,1.3357,1.3356,1.3356,0,0,1.2493,1.2624,1.2652,1.2705,1.281,1.2892,1.3001,1.311,1.3167,1.3252,1.3346,1.3492,1.3474,1.354,1.3564,1.3637,1.376,1.361,1.3613,1.3636,1.3934,1.3948,1.3973,1.376,1.3765,1.3768,1.3926,0,1.2641,1.2833,1.2866,1.3036,1.3132,1.3138,1.3233,1.3309,1.3353,1.3442,1.349,1.3593,1.3562,1.3601,1.3674,1.373,1.3821,1.3719,1.3851,1.3856,1.3828,1.4001,1.4017,1.4162,1.3947,1.3951,1.3953,0,1.284,1.2927,1.3106,1.3197,1.3239,1.3324,1.3426,1.3511,1.3598,1.3624,1.3696,1.3711,1.3827,1.3771,1.3933,1.3862,1.3918,1.3953,1.396,1.3976,1.3913,1.4022,1.4209,1.4232,1.3987,1.3984,1.3982,0,1.2937,1.31,1.3228,1.3273,1.3383,1.3443,1.3492,1.3574,1.3638,1.3728,1.3769,1.3872,1.3929,1.4009,1.4052,1.4008,1.4211,1.4159,1.4238,1.4238,1.4283,1.428,1.4483,1.4316,1.4315,1.4315,1.4315,0,1.31,1.321,1.3273,1.3352,1.3475,1.3512,1.3634,1.3682,1.3755,1.3845,1.3856,1.3941,1.3992,1.4084,1.4118,1.4248,1.4273,1.4299,1.4307,1.4299,1.4296,1.4338,1.433,1.4321,1.432,1.4318,1.4317,0,1.3231,1.3278,1.3418,1.351,1.3535,1.3622,1.3702,1.378,1.3822,1.3935,1.3964,1.4031,1.4141,1.419,1.4326,1.4349,1.4497,1.4497,1.4467,1.447,1.4547,1.454,1.4786,1.4821,1.4629,1.4631,1.4632,0,1.3333,1.3417,1.3517,1.3577,1.3627,1.3723,1.3787,1.3827,1.3893,1.3997,1.4063,1.4172,1.4262,1.4436,1.4498,1.4602,1.4607,1.4685,1.4623,1.4612,1.461,1.4605,1.4614,1.4698,1.47,1.4701,1.4702,0,1.3509,1.3528,1.3618,1.3717,1.3792,1.3872,1.3951,1.4,1.4052,1.4126,1.4236,1.4306,1.4443,1.4552,1.4659,1.4712,1.4718,1.4721,1.4745,1.4739,1.4719,1.4732,1.45,1.4716,1.4715,1.4714,1.4713,1.4712,1.363,1.3705,1.3787,1.3887,1.395,1.4023,1.4101,1.4151,1.4243,1.4357,1.4374,1.4493,1.4578,1.4722,1.4779,1.4873,1.4855,1.4889,1.4899,1.4907,1.4912,1.4701,1.4893,1.4893,1.4892,1.4892,1.4892,0,1.3808,1.386,1.3952,1.406,1.414,1.4134,1.4221,1.4288,1.4391,1.4469,1.4556,1.4683,1.4789,1.4858,1.4965,1.5028,1.5033,1.5055,1.5052,1.5064,1.4922,1.4891,1.5049,1.5049,1.5049,1.5049,1.5049,1.5049,1.391,1.4036,1.4064,1.4223,1.4275,1.4389,1.444,1.4508,1.457,1.4711,1.4797,1.4841,1.4916,1.5028,1.5125,1.5143,1.5183,1.5206,1.5224,1.509,1.5074,1.5058,1.5029,1.5214,1.5214,1.5358,1.5359,1.536]}]]